| time (UTC) | temp C | wind direction | speed KPH | gust KPH | rain 1hr cm | rain 24hr cm | rain mn cm | humidity % | barometer mb |
| 20260508064554 | 11 | 0 | 0.0 | 4.8 | 0.00 | 0.00 | 0.00 | 22 | 1017.1 |
| 20260508063051 | 11 | 0 | 0.0 | 3.2 | 0.00 | 0.00 | 0.00 | 22 | 1016.9 |
| 20260508061555 | 12 | 0 | 0.0 | 1.6 | 0.00 | 0.00 | 0.00 | 20 | 1016.8 |
| 20260508060053 | 13 | 0 | 1.6 | 6.4 | 0.00 | 0.00 | 0.00 | 18 | 1016.9 |
| 20260508054602 | 13 | 284 | 0.0 | 4.8 | 0.00 | 0.00 | 0.00 | 18 | 1016.8 |
| 20260508053054 | 13 | 0 | 0.0 | 6.4 | 0.00 | 0.00 | 0.00 | 19 | 1016.8 |
| 20260508051553 | 13 | 0 | 0.0 | 3.2 | 0.00 | 0.00 | 0.00 | 18 | 1016.8 |
| 20260508050054 | 14 | 0 | 0.0 | 3.2 | 0.00 | 0.00 | 0.00 | 16 | 1016.9 |
| 20260508044559 | 14 | 0 | 1.6 | 4.8 | 0.00 | 0.00 | 0.00 | 15 | 1016.9 |
| 20260508043054 | 15 | 0 | 0.0 | 4.8 | 0.00 | 0.00 | 0.00 | 14 | 1016.8 |
| 20260508041553 | 15 | 0 | 0.0 | 4.8 | 0.00 | 0.00 | 0.00 | 14 | 1016.8 |
| 20260508040101 | 16 | 0 | 0.0 | 0.0 | 0.00 | 0.00 | 0.00 | 13 | 1016.7 |
| 20260508034556 | 17 | 0 | 0.0 | 3.2 | 0.00 | 0.00 | 0.00 | 13 | 1016.6 |
| 20260508033112 | 18 | 0 | 0.0 | 3.2 | 0.00 | 0.00 | 0.00 | 12 | 1016.4 |
| 20260508031556 | 18 | 291 | 1.6 | 8.0 | 0.00 | 0.00 | 0.00 | 11 | 1016.1 |
| 20260508030109 | 19 | 0 | 1.6 | 8.0 | 0.00 | 0.00 | 0.00 | 10 | 1016.0 |
| 20260508024619 | 20 | 0 | 0.0 | 8.0 | 0.00 | 0.00 | 0.00 | 10 | 1015.7 |
| 20260508023054 | 20 | 308 | 1.6 | 9.7 | 0.00 | 0.00 | 0.00 | 9 | 1015.5 |
| 20260508021554 | 21 | 305 | 1.6 | 12.9 | 0.00 | 0.00 | 0.00 | 8 | 1015.2 |
| 20260508020107 | 21 | 0 | 3.2 | 12.9 | 0.00 | 0.00 | 0.00 | 8 | 1015.1 |
| 20260508014609 | 22 | 325 | 3.2 | 8.0 | 0.00 | 0.00 | 0.00 | 8 | 1015.0 |
| 20260508013107 | 22 | 144 | 4.8 | 14.5 | 0.00 | 0.00 | 0.00 | 12 | 1014.7 |
| 20260508011600 | 23 | 157 | 8.0 | 16.1 | 0.00 | 0.00 | 0.00 | 12 | 1014.5 |
| 20260508010110 | 23 | 144 | 6.4 | 16.1 | 0.00 | 0.00 | 0.00 | 12 | 1014.4 |
| 20260508004553 | 23 | 143 | 6.4 | 19.3 | 0.00 | 0.00 | 0.00 | 12 | 1014.4 |
| 20260508003058 | 23 | 146 | 9.7 | 22.5 | 0.00 | 0.00 | 0.00 | 11 | 1014.3 |
| 20260508001556 | 23 | 142 | 9.7 | 19.3 | 0.00 | 0.00 | 0.00 | 11 | 1014.3 |
| 20260508000101 | 23 | 184 | 11.3 | 29.0 | 0.00 | 0.00 | 0.00 | 10 | 1014.4 |
| 20260507234602 | 24 | 141 | 8.0 | 20.9 | 0.00 | 0.00 | 0.00 | 10 | 1014.5 |
| 20260507233057 | 23 | 0 | 8.0 | 20.9 | 0.00 | 0.00 | 0.00 | 11 | 1014.7 |
| 20260507231603 | 24 | 186 | 9.7 | 22.5 | 0.00 | 0.00 | 0.00 | 10 | 1015.0 |
| 20260507230056 | 24 | 132 | 11.3 | 24.1 | 0.00 | 0.00 | 0.00 | 10 | 1015.1 |
| 20260507224553 | 24 | 120 | 4.8 | 19.3 | 0.00 | 0.00 | 0.00 | 11 | 1015.3 |
| 20260507223057 | 23 | 121 | 8.0 | 19.3 | 0.00 | 0.00 | 0.00 | 11 | 1015.4 |
| 20260507221559 | 23 | 240 | 9.7 | 22.5 | 0.00 | 0.00 | 0.00 | 11 | 1015.5 |
| 20260507220054 | 23 | 178 | 9.7 | 22.5 | 0.00 | 0.00 | 0.00 | 11 | 1015.6 |
| 20260507214556 | 23 | 135 | 6.4 | 19.3 | 0.00 | 0.00 | 0.00 | 13 | 1016.0 |
| 20260507213059 | 23 | 155 | 9.7 | 17.7 | 0.00 | 0.00 | 0.00 | 13 | 1016.2 |
| 20260507211603 | 23 | 136 | 6.4 | 19.3 | 0.00 | 0.00 | 0.00 | 14 | 1016.6 |
| 20260507210055 | 23 | 0 | 6.4 | 17.7 | 0.00 | 0.00 | 0.00 | 15 | 1016.9 |
| 20260507204602 | 22 | 134 | 9.7 | 19.3 | 0.00 | 0.00 | 0.00 | 16 | 1017.4 |
| 20260507203056 | 22 | 164 | 6.4 | 16.1 | 0.00 | 0.00 | 0.00 | 16 | 1017.7 |
| 20260507201557 | 22 | 127 | 9.7 | 19.3 | 0.00 | 0.00 | 0.00 | 17 | 1018.0 |
| 20260507200100 | 22 | 145 | 3.2 | 12.9 | 0.00 | 0.00 | 0.00 | 17 | 1018.2 |
| 20260507194613 | 20 | 98 | 6.4 | 19.3 | 0.00 | 0.00 | 0.00 | 18 | 1018.5 |
| 20260507193100 | 21 | 211 | 3.2 | 12.9 | 0.00 | 0.00 | 0.00 | 18 | 1018.7 |
| 20260507191604 | 20 | 157 | 4.8 | 16.1 | 0.00 | 0.00 | 0.00 | 20 | 1019.1 |
| 20260507190059 | 20 | 181 | 3.2 | 12.9 | 0.00 | 0.00 | 0.00 | 19 | 1019.3 |
| 20260507184609 | 19 | 0 | 1.6 | 9.7 | 0.00 | 0.00 | 0.00 | 19 | 1019.7 |
| 20260507183104 | 19 | 0 | 0.0 | 8.0 | 0.00 | 0.00 | 0.00 | 22 | 1019.9 |
| 20260507181555 | 19 | 187 | 4.8 | 11.3 | 0.00 | 0.00 | 0.00 | 21 | 1020.1 |
| 20260507180059 | 18 | 0 | 3.2 | 8.0 | 0.00 | 0.00 | 0.00 | 22 | 1020.4 |
| 20260507174602 | 18 | 352 | 3.2 | 11.3 | 0.00 | 0.00 | 0.00 | 24 | 1020.6 |
| 20260507173100 | 17 | 119 | 3.2 | 12.9 | 0.00 | 0.00 | 0.00 | 25 | 1021.0 |
| 20260507171554 | 17 | 331 | 3.2 | 9.7 | 0.00 | 0.00 | 0.00 | 27 | 1021.3 |
| 20260507170058 | 16 | 53 | 3.2 | 16.1 | 0.00 | 0.00 | 0.00 | 27 | 1021.5 |
| 20260507164553 | 15 | 36 | 4.8 | 17.7 | 0.00 | 0.00 | 0.00 | 33 | 1021.6 |
| 20260507163058 | 15 | 338 | 4.8 | 17.7 | 0.00 | 0.00 | 0.00 | 35 | 1021.8 |
| 20260507161558 | 14 | 55 | 4.8 | 20.9 | 0.00 | 0.00 | 0.00 | 38 | 1021.9 |
| 20260507160053 | 13 | 360 | 3.2 | 16.1 | 0.00 | 0.00 | 0.00 | 40 | 1022.1 |
| 20260507154555 | 12 | 26 | 6.4 | 14.5 | 0.00 | 0.00 | 0.00 | 42 | 1022.2 |
| 20260507153105 | 11 | 14 | 6.4 | 19.3 | 0.00 | 0.00 | 0.00 | 45 | 1022.3 |
| 20260507151554 | 11 | 338 | 6.4 | 19.3 | 0.00 | 0.00 | 0.00 | 47 | 1022.4 |
| 20260507150058 | 10 | 35 | 4.8 | 24.1 | 0.00 | 0.00 | 0.00 | 50 | 1022.5 |
| 20260507144556 | 10 | 27 | 4.8 | 19.3 | 0.00 | 0.00 | 0.00 | 53 | 1022.5 |
| 20260507143104 | 9 | 344 | 8.0 | 20.9 | 0.00 | 0.00 | 0.00 | 55 | 1022.7 |
| 20260507141557 | 8 | 360 | 6.4 | 22.5 | 0.00 | 0.00 | 0.00 | 57 | 1022.7 |
| 20260507134555 | 7 | 5 | 8.0 | 27.4 | 0.00 | 0.00 | 0.00 | 62 | 1022.7 |
| 20260507133053 | 6 | 337 | 8.0 | 22.5 | 0.00 | 0.00 | 0.00 | 60 | 1022.7 |
| 20260507131553 | 6 | 327 | 8.0 | 20.9 | 0.00 | 0.00 | 0.00 | 63 | 1022.6 |
| 20260507124558 | 4 | 352 | 4.8 | 16.1 | 0.00 | 0.00 | 0.00 | 68 | 1022.5 |
| 20260507123056 | 4 | 337 | 3.2 | 11.3 | 0.00 | 0.00 | 0.00 | 67 | 1022.3 |
| 20260507121600 | 4 | 360 | 6.4 | 14.5 | 0.00 | 0.00 | 0.00 | 67 | 1022.3 |
| 20260507120058 | 4 | 352 | 0.0 | 9.7 | 0.00 | 0.00 | 0.00 | 65 | 1022.2 |
| 20260507114552 | 5 | 311 | 0.0 | 9.7 | 0.00 | 0.00 | 0.00 | 64 | 1022.2 |
| 20260507113100 | 5 | 360 | 1.6 | 9.7 | 0.00 | 0.00 | 0.00 | 63 | 1022.1 |
| 20260507111557 | 5 | 5 | 1.6 | 8.0 | 0.00 | 0.00 | 0.00 | 60 | 1022.1 |
| 20260507104602 | 5 | 30 | 1.6 | 6.4 | 0.00 | 0.00 | 0.00 | 56 | 1022.2 |
| 20260507103128 | 5 | 0 | 0.0 | 8.0 | 0.00 | 0.00 | 0.00 | 52 | 1022.0 |
| 20260507101554 | 5 | 0 | 0.0 | 1.6 | 0.00 | 0.00 | 0.00 | 45 | 1022.0 |
| 20260507100106 | 5 | 0 | 0.0 | 4.8 | 0.00 | 0.00 | 0.00 | 42 | 1022.0 |
| 20260507094556 | 5 | 331 | 1.6 | 4.8 | 0.00 | 0.00 | 0.00 | 40 | 1021.8 |
| 20260507093053 | 6 | 360 | 0.0 | 4.8 | 0.00 | 0.00 | 0.00 | 37 | 1021.8 |
| 20260507091552 | 7 | 0 | 0.0 | 4.8 | 0.00 | 0.00 | 0.00 | 34 | 1021.8 |
| 20260507090059 | 7 | 57 | 1.6 | 14.5 | 0.00 | 0.00 | 0.00 | 33 | 1021.7 |
| 20260507084604 | 7 | 360 | 6.4 | 14.5 | 0.00 | 0.00 | 0.00 | 34 | 1021.7 |
| 20260507083052 | 7 | 328 | 1.6 | 9.7 | 0.00 | 0.00 | 0.00 | 34 | 1021.6 |
| 20260507081558 | 7 | 38 | 1.6 | 8.0 | 0.00 | 0.00 | 0.00 | 34 | 1021.6 |
| 20260507080057 | 8 | 0 | 0.0 | 8.0 | 0.00 | 0.00 | 0.00 | 32 | 1021.4 |
| 20260507074552 | 9 | 334 | 3.2 | 14.5 | 0.00 | 0.00 | 0.00 | 29 | 1021.0 |
| 20260507073052 | 9 | 336 | 4.8 | 14.5 | 0.00 | 0.00 | 0.00 | 29 | 1020.9 |
| 20260507071559 | 9 | 277 | 6.4 | 14.5 | 0.00 | 0.00 | 0.00 | 29 | 1020.8 |
| 20260507070106 | 9 | 311 | 4.8 | 9.7 | 0.00 | 0.00 | 0.00 | 30 | 1020.8 |